Waarnemingen

Advertentie
Mijn weer
D15-FA-1, Nederland (6201): temperatuur & dauwpunt: 13.07.2018 21:00:00 - 19.07.2018 21:00:00 (CEST)D15-FA-1, Nederland (6201): windsnelheid & windstoten: 13.07.2018 21:00:00 - 19.07.2018 21:00:00 (CEST)D15-FA-1, Nederland (6201): windrichting: 13.07.2018 21:00:00 - 19.07.2018 21:00:00 (CEST)D15-FA-1, Nederland (6201): luchtdruk: 13.07.2018 21:00:00 - 19.07.2018 21:00:00 (CEST)D15-FA-1, Nederland (6201): zicht: 13.07.2018 21:00:00 - 19.07.2018 21:00:00 (CEST)
Datum & Tijd tt [°C] td [°C] ff [km/u] ff [kn] fx [km/u] fx [kn] dd ppp [hPa] vv [km]
19.07.2018 21:00:00 17,7 12,5 18 10 18 10 ZO 1018,7 3,9
19.07.2018 20:00:00 17,7 12,7 18 10 18 10 ZO 1019,0 5
19.07.2018 19:00:00 17,7 12,7 18 10 18 10 ZO 1019,3 7
19.07.2018 18:00:00 17,5 12,6 18 10 18 10 ZO 1019,7 10
19.07.2018 17:00:00 17,5 12,9 16 9 18 10 ZO 1020,1 10
19.07.2018 16:00:00 17,4 13,2 16 9 18 10 OZO 1020,5 10
19.07.2018 15:00:00 17,3 13,1 16 9 18 10 OZO 1020,5 10
19.07.2018 14:00:00 17,2 13,2 18 10 22 12 O 1020,6 10
19.07.2018 13:00:00 17,1 12,8 13 7 14 8 O 1020,8 10
19.07.2018 12:00:00 17,1 13,2 9 5 11 6 O 1020,8 10
19.07.2018 11:00:00 17,2 13,3 5 3 7 4 ONO 1020,8 10
19.07.2018 10:00:00 17,2 13,2 4 2 7 4 - 1020,8 10
19.07.2018 09:00:00 17,4 13,2 4 2 4 2 - 1020,7 10
19.07.2018 08:00:00 17,3 13,4 2 1 7 4 NNO 1020,7 10
19.07.2018 07:00:00 17,2 13,5 4 2 7 4 - 1020,6 10
19.07.2018 06:00:00 16,9 13,4 5 3 7 4 O 1020,6 10
19.07.2018 05:00:00 16,9 13,1 8 4 11 6 OZO 1020,6 10
19.07.2018 04:00:00 16,9 13,1 9 5 11 6 O 1020,3 10
19.07.2018 03:00:00 17,0 13,3 11 6 14 8 NO 1020,5 10
19.07.2018 02:00:00 17,0 12,9 13 7 14 8 - 1020,6 10
19.07.2018 01:00:00 17,1 13,2 13 7 14 8 - 1020,4 10
19.07.2018 00:00:00 17,1 13,6 11 6 14 8 NO 1020,4 10
18.07.2018 23:00:00 17,2 13,4 11 6 14 8 NNO 1020,3 10
18.07.2018 22:00:00 17,3 13,2 15 8 14 8 N 1020,0 10
18.07.2018 21:00:00 17,4 12,3 13 7 14 8 N 1019,7 10
18.07.2018 20:00:00 17,4 12,5 15 8 14 8 NNW 1019,7 10
18.07.2018 19:00:00 17,4 13,7 16 9 18 10 NNW 1019,7 10
18.07.2018 18:00:00 17,3 13,2 18 10 18 10 NNW 1019,6 10
18.07.2018 17:00:00 17,3 12,7 15 8 14 8 NW 1019,6 10
18.07.2018 16:00:00 17,3 12,5 15 8 14 8 NW 1019,4 10
18.07.2018 15:00:00 17,3 11,1 11 6 11 6 NW 1019,2 10
18.07.2018 14:00:00 17,4 11,2 9 5 14 8 NW 1019,1 10
18.07.2018 13:00:00 17,8 11,6 13 7 14 8 WNW 1018,6 10
18.07.2018 12:00:00 17,5 11,7 9 5 11 6 NW 1018,4 10
18.07.2018 11:00:00 17,7 11,7 13 7 14 8 WNW 1018,1 10
18.07.2018 10:00:00 17,2 14,5 15 8 22 12 W 1017,9 10
18.07.2018 09:00:00 17,2 14,0 11 6 18 10 Z 1017,7 10
18.07.2018 08:00:00 17,2 13,5 15 8 18 10 Z 1017,2 10
18.07.2018 07:00:00 17,2 13,6 13 7 18 10 Z 1016,7 10
18.07.2018 06:00:00 17,1 13,6 15 8 22 12 Z 1016,6 10
18.07.2018 05:00:00 17,1 13,0 18 10 22 12 Z 1016,6 10
18.07.2018 04:00:00 16,9 13,3 18 10 22 12 Z 1016,4 10
18.07.2018 03:00:00 16,7 13,3 18 10 22 12 - 1016,5 10
18.07.2018 02:00:00 16,5 14,3 11 6 25 14 - 1016,5 10
18.07.2018 01:00:00 16,6 14,5 16 9 22 12 - 1016,6 10
18.07.2018 00:00:00 16,8 13,7 13 7 18 10 W 1016,3 10
17.07.2018 23:00:00 17,0 14,0 21 11 25 14 W 1016,1 10
17.07.2018 22:00:00 17,0 13,7 24 13 29 16 W 1015,6 10
17.07.2018 21:00:00 17,4 13,4 28 15 32 18 WNW 1015,1 10
17.07.2018 20:00:00 17,3 13,9 34 18 36 19 WNW 1014,5 10
17.07.2018 19:00:00 17,7 14,8 34 18 36 19 WNW 1014,1 10
17.07.2018 18:00:00 17,6 15,0 35 19 40 21 W 1013,6 10
17.07.2018 17:00:00 17,8 15,8 35 19 36 19 W 1013,3 10
17.07.2018 16:00:00 18,0 15,6 37 20 36 19 W 1012,9 10
17.07.2018 15:00:00 18,4 15,6 29 16 29 16 W 1012,4 10
17.07.2018 14:00:00 18,4 15,8 29 16 29 16 W 1012,0 10
17.07.2018 13:00:00 18,5 17,1 21 11 22 12 W 1011,7 10
17.07.2018 12:00:00 19,3 17,2 2 1 11 6 - 1011,3 10
17.07.2018 11:00:00 18,3 17,3 5 3 14 8 N 1011,0 10
17.07.2018 10:00:00 18,6 16,9 11 6 11 6 ZZO 1011,1 10
17.07.2018 09:00:00 19,0 17,2 5 3 14 8 O 1010,7 4,6
17.07.2018 08:00:00 18,4 17,0 18 10 18 10 OZO 1010,6 10
17.07.2018 07:00:00 18,3 16,8 8 4 11 6 NNO 1010,8 10
17.07.2018 06:00:00 18,5 16,7 9 5 25 14 Z 1011,1 10
17.07.2018 05:00:00 18,7 16,4 28 15 29 16 ZO 1010,8 5
17.07.2018 04:00:00 18,7 16,1 31 17 36 19 ZO 1011,4 10
17.07.2018 03:00:00 18,8 15,9 35 19 36 19 ZZO 1011,7 7
17.07.2018 02:00:00 18,8 15,8 29 16 32 18 ZZO 1012,4 6
17.07.2018 01:00:00 18,7 15,9 29 16 29 16 ZZO 1012,8 4,2
17.07.2018 00:00:00 18,7 16,1 29 16 29 16 ZZO 1012,8 4,2
16.07.2018 23:00:00 18,6 16,4 28 15 29 16 ZZO 1012,9 7
16.07.2018 22:00:00 18,5 16,8 28 15 25 14 ZO 1012,9 10
16.07.2018 21:00:00 18,6 16,6 22 12 22 12 ZZO 1012,8 5
16.07.2018 20:00:00 18,5 16,9 22 12 22 12 Z 1012,8 9
16.07.2018 19:00:00 18,3 16,5 21 11 22 12 ZZO 1012,8 5
16.07.2018 18:00:00 18,2 16,2 24 13 25 14 Z 1013,0 10
16.07.2018 17:00:00 18,1 16,3 24 13 25 14 ZZO 1013,3 6
16.07.2018 16:00:00 18,1 16,2 24 13 25 14 ZZO 1013,3 3,7
16.07.2018 15:00:00 17,9 16,3 24 13 22 12 ZZO 1013,7 3,2
16.07.2018 14:00:00 17,9 16,2 26 14 25 14 ZZO 1013,8 3,3
16.07.2018 13:00:00 17,9 16,3 26 14 25 14 Z 1014,0 7
16.07.2018 12:00:00 18,0 16,2 24 13 29 16 Z 1014,1 10
16.07.2018 11:00:00 18,0 16,1 31 17 29 16 ZZO 1014,0 4,0
16.07.2018 10:00:00 17,9 16,1 34 18 32 18 ZZO 1014,0 4,9
16.07.2018 09:00:00 17,9 15,9 34 18 36 19 ZO 1014,1 8
16.07.2018 08:00:00 17,9 15,8 35 19 36 19 ZO 1013,9 10
16.07.2018 07:00:00 17,8 16,0 35 19 36 19 ZO 1014,1 10
16.07.2018 06:00:00 17,8 15,9 34 18 32 18 ZO 1014,3 10
16.07.2018 05:00:00 18,0 15,4 29 16 29 16 ZO 1014,6 10
16.07.2018 04:00:00 18,0 15,5 29 16 29 16 ZZO 1014,8 6
16.07.2018 03:00:00 18,0 15,5 28 15 29 16 ZZO 1015,2 4,9
16.07.2018 02:00:00 18,1 15,3 31 17 32 18 ZZO 1015,5 4,4
16.07.2018 01:00:00 18,1 15,3 31 17 32 18 ZZO 1015,7 4,1
16.07.2018 00:00:00 18,1 15,4 31 17 29 16 ZZO 1015,9 3,7
15.07.2018 23:00:00 18,0 15,1 29 16 29 16 ZZO 1015,7 4,3
15.07.2018 22:00:00 18,2 14,6 29 16 29 16 ZZO 1015,5 4,8
15.07.2018 21:00:00 17,7 15,4 26 14 25 14 ZZO 1015,4 3,7
15.07.2018 20:00:00 17,6 15,4 24 13 25 14 Z 1015,6 10
15.07.2018 19:00:00 17,5 15,5 22 12 22 12 Z 1016,1 10
15.07.2018 18:00:00 17,5 15,5 22 12 25 14 ZZO 1016,4 10
15.07.2018 17:00:00 17,5 15,4 21 11 18 10 Z 1016,7 10
15.07.2018 16:00:00 17,5 15,2 22 12 22 12 Z 1016,9 10
15.07.2018 15:00:00 17,5 15,2 22 12 22 12 Z 1017,1 10
15.07.2018 14:00:00 17,5 15,1 24 13 29 16 Z 1017,1 10
15.07.2018 13:00:00 17,5 15,0 29 16 29 16 Z 1017,1 10
15.07.2018 12:00:00 17,6 14,8 29 16 29 16 Z 1017,1 10
15.07.2018 11:00:00 17,6 14,5 29 16 32 18 Z 1017,1 10
15.07.2018 10:00:00 17,5 14,4 29 16 32 18 Z 1017,2 10
15.07.2018 09:00:00 17,4 14,7 31 17 32 18 Z 1017,2 10
15.07.2018 08:00:00 17,3 14,5 29 16 29 16 Z 1017,4 10
15.07.2018 07:00:00 17,2 14,6 29 16 29 16 Z 1017,2 10
15.07.2018 06:00:00 17,1 14,5 29 16 29 16 Z 1017,2 10
15.07.2018 05:00:00 17,0 14,8 26 14 29 16 Z 1017,5 10
15.07.2018 04:00:00 17,0 14,1 26 14 25 14 Z 1017,8 10
15.07.2018 03:00:00 16,9 14,4 26 14 25 14 Z 1018,1 10
15.07.2018 02:00:00 16,9 14,4 24 13 25 14 Z 1018,3 10
15.07.2018 01:00:00 16,9 14,0 24 13 25 14 Z 1018,5 10
15.07.2018 00:00:00 16,9 13,8 24 13 25 14 Z 1018,7 10
14.07.2018 23:00:00 16,8 13,4 26 14 25 14 Z 1018,8 10
14.07.2018 22:00:00 16,7 13,9 28 15 25 14 Z 1018,7 10
14.07.2018 21:00:00 16,6 13,5 26 14 25 14 Z 1018,6 10
14.07.2018 20:00:00 16,6 13,0 24 13 25 14 Z 1018,9 10
14.07.2018 19:00:00 16,4 12,8 26 14 25 14 Z 1019,3 10
14.07.2018 18:00:00 16,4 12,7 24 13 25 14 Z 1020,0 10
14.07.2018 17:00:00 16,3 12,4 22 12 22 12 Z 1020,3 10
14.07.2018 16:00:00 16,2 13,0 22 12 22 12 Z 1020,7 10
14.07.2018 15:00:00 16,1 13,2 21 11 22 12 Z 1021,2 10
14.07.2018 14:00:00 16,1 13,2 18 10 25 14 Z 1021,4 10
14.07.2018 13:00:00 16,1 13,2 15 8 22 12 Z 1021,5 10
14.07.2018 12:00:00 16,0 13,2 16 9 25 14 Z 1021,6 10
14.07.2018 11:00:00 16,0 12,8 11 6 22 12 Z 1021,9 10
14.07.2018 10:00:00 15,7 12,4 11 6 14 8 ZZW 1022,0 10
14.07.2018 09:00:00 15,6 12,2 11 6 18 10 W 1021,9 10
14.07.2018 08:00:00 15,5 13,0 13 7 22 12 - 1021,6 10
14.07.2018 07:00:00 15,7 12,8 11 6 18 10 - 1021,5 10
14.07.2018 06:00:00 15,5 13,0 8 4 14 8 W 1021,5 10
14.07.2018 05:00:00 15,4 12,9 5 3 11 6 WNW 1021,8 10
14.07.2018 04:00:00 15,5 12,8 8 4 11 6 NW 1021,9 10
14.07.2018 03:00:00 15,6 13,0 8 4 11 6 NNW 1022,1 10
14.07.2018 02:00:00 15,7 12,9 9 5 11 6 NW 1022,2 10
14.07.2018 01:00:00 15,8 12,6 9 5 14 8 NW 1022,2 10
14.07.2018 00:00:00 16,0 13,0 13 7 14 8 NNW 1022,3 10
13.07.2018 23:00:00 16,1 12,9 11 6 11 6 NW 1022,3 10
13.07.2018 22:00:00 16,2 12,8 15 8 14 8 NW 1022,2 10
13.07.2018 21:00:00 16,4 13,1 13 7 18 10 NW 1022,2 10

tt = temperatuur
td = dauwpunt
ff = windsnelheid
fx = windstoten
dd = windrichting
ppp = luchtdruk
vv = zicht

Weerstations in de omgeving